User: anonymous   Login
Location: Staunton
(38.1490°N, 79.0720°W)
Time: 11:08:26
(UTC-04:00)
Language:

ISS - Orbit

View from above orbital plane
View from above orbital plane
View from above satellite
View from above satellite

Ground track
Ground track

The orbit data is extracted from the following two-line orbital elements,

1 25544U 98067A   18269.55456552  .00016717  00000-0  10270-3 0  9022
2 25544  51.6381 233.5620 0004020 212.6473 147.4431 15.53769975 14273
Epoch (UTC): 26 September 2018 13:18:34
Eccentricity: 0.0004020
inclination: 51.6381°
perigee height: 403 km
apogee height: 408 km
right ascension of ascending node: 233.5620°
argument of perigee: 212.6473°
revolutions per day: 15.53769975
mean anomaly at epoch: 147.4431°
orbit number at epoch: 1427

The dashed part of the orbit path shows where the satellite is in the earth's shadow,  

DLR